Getulina, Brazil
Current Conditions -  °F | °C
As of 4:00 AM on Sunday 26 Oct 2014 (Local Time) from SBBU Reporting Station
Moderate Fog Moderate Fog  
Wind Chill: 68°   Ceiling: 100
Heat Index: 68°   Visibility: 0.5mi
Dew Point: 68°   Wind: 0mph
Humidity: 100%   Direction: NA
Pressure: 29.94"   Gusts: NA
Location:  21.8°S, 49.93°W
Report Text: SBBU 260600Z 00000KT 0800 FG BKN001 20/20 Q1014
Loading
Personal Weather Stations






























Interactive Weather Map
Tropical Storm Tracking
New forecast layout! Learn more

10-Day Weather Forecast

Advertisements
Track Severe Weather on mobile